Date String (YYYY-MM-DD hh:mm:ss) UTC,Instrument flags,absolute air pressure of the measurement (hPa),sample flow rate (lpm),inlet stack bypass flow (lpm),air temperature of the measurement (°C),ambient temperature measured by the external sensor (°C),aerosol sample conditioner tube jacket temperature (°C),OPC LED temperature (°C),internal box temperature (°C),relative humidity of the measurement (%),span deviation,mass concentration of particles derived from Lorenz-Mie calculation of OPC scattering (μg/m³),mass concentration of particles derived from Lorenz-Mie calculation of OPC scattering (μg/m³),mass concentration of particles derived from Lorenz-Mie calculation of OPC scattering (μg/m³)
DateTimeUTC,F1_M11,P_M11,Q1_M11,Q2_M11,T1_M11,T2_M11,T3_M11,T4_M11,T5_M11,U1_M11,ZSPAN_M11,X0_M11,X2_M11,X1_M11
2023-06-05 21:00:00,SystemResetWarning,0833.7,5.00,000.00,029.4,028.2,000.0,037.7,031.2,29.5,0002.8,0009.49,0005.97,0005.62
2023-06-05 21:01:00,SystemResetWarning,0833.7,5.00,000.00,029.5,028.2,000.0,037.7,031.2,30.0,0003.0,0008.89,0005.97,0005.62
2023-06-05 21:02:00,SystemResetWarning,0833.7,5.00,000.00,029.5,028.3,000.0,037.7,031.2,30.2,0002.8,0008.81,0005.92,0005.60
2023-06-05 21:03:00,SystemResetWarning,0833.7,5.00,000.00,029.5,028.4,000.0,037.7,031.3,30.1,0002.7,0008.79,0005.90,0005.60
2023-06-05 21:04:00,SystemResetWarning,0833.7,5.00,000.00,029.6,028.2,000.0,037.7,031.3,30.1,0002.6,0008.74,0005.91,0005.60
2023-06-05 21:05:00,SystemResetWarning,0833.6,4.98,000.00,029.5,026.7,000.0,037.7,031.1,29.7,0002.7,0008.71,0005.90,0005.59
2023-06-05 21:06:00,SystemResetWarning,0833.6,5.01,000.00,029.5,025.8,000.0,037.6,031.0,30.0,0002.4,0008.73,0005.91,0005.60
2023-06-05 21:07:00,SystemResetWarning,0833.6,5.00,000.00,029.4,025.9,000.0,037.6,030.8,31.2,0002.6,0008.66,0005.91,0005.60
2023-06-05 21:08:00,SystemResetWarning,0833.6,5.00,000.00,029.3,026.1,000.0,037.6,030.9,30.5,0002.6,0008.73,0005.92,0005.60
2023-06-05 21:09:00,SystemResetWarning,0833.6,4.99,000.00,029.3,026.5,000.0,037.6,030.9,29.2,0002.4,0008.70,0005.91,0005.58
2023-06-05 21:10:00,SystemResetWarning,0833.6,5.00,000.00,029.3,026.8,000.0,037.6,030.9,29.5,0001.9,0008.66,0005.88,0005.57
2023-06-05 21:11:00,SystemResetWarning,0833.6,5.00,000.00,029.3,027.1,000.0,037.6,031.0,29.6,0001.2,0008.61,0005.84,0005.55
2023-06-05 21:12:00,SystemResetWarning,0833.7,5.01,000.00,029.4,027.3,000.0,037.7,031.0,29.6,0000.7,0008.63,0005.84,0005.54
2023-06-05 21:13:00,SystemResetWarning,0833.6,5.00,000.00,029.4,027.5,000.0,037.7,031.1,29.5,0000.8,0008.69,0005.86,0005.53
2023-06-05 21:14:00,SystemResetWarning,0833.6,4.99,000.00,029.4,027.7,000.0,037.7,031.1,29.9,0001.0,0008.72,0005.86,0005.51
2023-06-05 21:15:00,SystemResetWarning,0833.6,4.99,000.00,029.4,027.9,000.0,037.7,031.1,30.4,0001.4,0008.66,0005.82,0005.49
2023-06-05 21:16:00,SystemResetWarning,0833.6,5.01,000.00,029.5,028.0,000.0,037.7,031.2,31.1,0001.0,0008.60,0005.79,0005.48
2023-06-05 21:17:00,SystemResetWarning,0833.5,5.01,000.00,029.5,028.1,000.0,037.7,031.2,31.0,0000.9,0008.68,0005.74,0005.44
2023-06-05 21:18:00,SystemResetWarning,0833.5,5.01,000.00,029.5,028.2,000.0,037.7,031.3,30.1,0000.3,0009.18,0005.72,0005.42
2023-06-05 21:19:00,SystemResetWarning,0833.4,4.99,000.00,029.5,028.3,000.0,037.8,031.3,30.4,0000.3,0009.37,0005.70,0005.40
2023-06-05 21:20:00,SystemResetWarning,0833.4,4.99,000.00,029.6,028.1,000.0,037.8,031.3,30.2,0000.4,0009.49,0005.70,0005.39
2023-06-05 21:21:00,SystemResetWarning,0833.4,4.99,000.00,029.6,026.7,000.0,037.7,031.1,29.7,0000.8,0009.58,0005.66,0005.35
2023-06-05 21:22:00,SystemResetWarning,0833.4,5.00,000.00,029.5,025.8,000.0,037.7,031.0,29.7,0001.1,0009.80,0005.66,0005.33
2023-06-05 21:23:00,SystemResetWarning,0833.4,5.01,000.00,029.4,025.8,000.0,037.6,030.8,29.5,0001.8,0009.85,0005.63,0005.30
2023-06-05 21:24:00,SystemResetWarning,0833.4,5.01,000.00,029.4,026.1,000.0,037.7,030.8,30.3,0001.9,0009.81,0005.58,0005.27
2023-06-05 21:25:00,SystemResetWarning,0833.4,5.00,000.00,029.3,026.4,000.0,037.7,030.9,29.7,0002.0,0009.75,0005.57,0005.27
2023-06-05 21:26:00,SystemResetWarning,0833.4,5.00,000.00,029.3,026.8,000.0,037.7,030.9,29.8,0002.3,0009.76,0005.56,0005.25
2023-06-05 21:27:00,SystemResetWarning,0833.4,5.00,000.00,029.3,027.1,000.0,037.7,031.0,29.8,0002.5,0009.89,0005.60,0005.24
2023-06-05 21:28:00,SystemResetWarning,0833.4,5.00,000.00,029.4,027.3,000.0,037.7,031.0,29.6,0002.8,0009.76,0005.61,0005.23
2023-06-05 21:29:00,SystemResetWarning,0833.4,5.00,000.00,029.4,027.5,000.0,037.7,031.1,29.8,0002.9,0009.26,0005.61,0005.22
2023-06-05 21:30:00,SystemResetWarning,0833.4,5.00,000.00,029.4,027.7,000.0,037.7,031.1,30.3,0002.2,0008.91,0005.59,0005.22
2023-06-05 21:31:00,SystemResetWarning,0833.4,5.00,000.00,029.4,027.9,000.0,037.7,031.1,29.2,0003.0,0008.84,0005.60,0005.21
2023-06-05 21:32:00,SystemResetWarning,0833.4,5.00,000.00,029.4,028.0,000.0,037.7,031.2,29.2,0003.2,0008.68,0005.60,0005.19
2023-06-05 21:33:00,SystemResetWarning,0833.4,4.99,000.00,029.5,028.1,000.0,037.7,031.2,29.4,0001.1,0008.91,0005.58,0005.18
2023-06-05 21:34:00,SystemResetWarning,0833.5,4.99,000.00,029.5,028.2,000.0,037.8,031.2,30.1,0000.0,0008.92,0005.58,0005.17
2023-06-05 21:35:00,SystemResetWarning,0833.4,5.00,000.00,029.5,028.3,000.0,037.8,031.3,29.2,0000.3,0009.21,0005.61,0005.18
2023-06-05 21:36:00,SystemResetWarning,0833.4,5.00,000.00,029.6,028.3,000.0,037.8,031.3,28.8,0002.4,0009.31,0005.61,0005.17
2023-06-05 21:37:00,SystemResetWarning,0833.4,5.00,000.00,029.6,028.2,000.0,037.8,031.3,28.7,0002.2,0009.30,0005.58,0005.16
2023-06-05 21:38:00,SystemResetWarning,0833.4,5.00,000.00,029.6,026.8,000.0,037.8,031.1,29.5,0000.0,0009.12,0005.51,0005.14
2023-06-05 21:39:00,SystemResetWarning,0833.4,5.00,000.00,029.5,025.9,000.0,037.7,031.0,29.7,0000.0,0009.16,0005.48,0005.12
2023-06-05 21:40:00,SystemResetWarning,0833.4,5.01,000.00,029.5,025.9,000.0,037.7,030.9,29.6,0000.0,0009.55,0005.48,0005.10
2023-06-05 21:41:00,SystemResetWarning,0833.4,5.02,000.00,029.4,026.2,000.0,037.7,030.9,29.1,0000.0,0009.55,0005.48,0005.10
2023-06-05 21:42:00,SystemResetWarning,0833.4,4.99,000.00,029.4,026.5,000.0,037.7,030.9,29.0,0000.0,0009.59,0005.46,0005.08
2023-06-05 21:43:00,SystemResetWarning,0833.4,5.00,000.00,029.4,026.8,000.0,037.7,031.0,29.6,0000.0,0009.66,0005.46,0005.07
2023-06-05 21:44:00,SystemResetWarning,0833.4,5.00,000.00,029.4,027.1,000.0,037.7,031.0,29.5,0000.0,0009.82,0005.42,0005.06
2023-06-05 21:45:00,SystemResetWarning,0833.4,5.00,000.00,029.4,027.4,000.0,037.7,031.1,29.6,0000.0,0010.02,0005.40,0005.04
2023-06-05 21:46:00,SystemResetWarning,0833.4,5.01,000.00,029.4,027.6,000.0,037.7,031.1,29.7,0000.0,0009.71,0005.35,0005.02
2023-06-05 21:47:00,SystemResetWarning,0833.4,5.01,000.00,029.4,027.8,000.0,037.7,031.1,28.8,0000.0,0010.02,0005.32,0004.99
2023-06-05 21:48:00,SystemResetWarning,0833.4,4.99,000.00,029.5,027.9,000.0,037.7,031.2,28.8,0000.0,0009.98,0005.32,0004.99
2023-06-05 21:49:00,SystemResetWarning,0833.4,4.99,000.00,029.5,028.0,000.0,037.8,031.2,29.4,0000.0,0009.99,0005.32,0004.98
2023-06-05 21:50:00,SystemResetWarning,0833.4,4.99,000.00,029.5,028.1,000.0,037.8,031.3,29.6,0000.0,0010.09,0005.33,0004.98
2023-06-05 21:51:00,SystemResetWarning,0833.4,5.00,000.00,029.5,028.2,000.0,037.8,031.3,30.1,0000.0,0009.60,0005.31,0004.97
2023-06-05 21:52:00,SystemResetWarning,0833.4,5.00,000.00,029.6,028.3,000.0,037.8,031.3,29.5,0000.0,0009.56,0005.29,0004.95
2023-06-05 21:53:00,SystemResetWarning,0833.4,5.01,000.00,029.6,028.2,000.0,037.8,031.3,29.9,0000.0,0009.52,0005.25,0004.93
2023-06-05 21:54:00,SystemResetWarning,0833.3,4.98,000.00,029.6,026.7,000.0,037.8,031.1,29.4,0000.0,0009.48,0005.23,0004.93
2023-06-05 21:55:00,SystemResetWarning,0833.3,5.00,000.00,029.5,025.8,000.0,037.7,031.0,28.6,0000.0,0009.15,0005.23,0004.93
2023-06-05 21:56:00,SystemResetWarning,0833.3,5.01,000.00,029.5,025.8,000.0,037.7,030.9,29.2,0000.0,0008.33,0005.21,0004.91
2023-06-05 21:57:00,SystemResetWarning,0833.3,5.01,000.00,029.4,026.1,000.0,037.7,030.9,30.1,0000.0,0008.33,0005.21,0004.89
2023-06-05 21:58:00,SystemResetWarning,0833.3,5.00,000.00,029.4,026.4,000.0,037.7,030.9,29.6,0000.0,0007.99,0005.22,0004.87
2023-06-05 21:59:00,SystemResetWarning,0833.4,5.00,000.00,029.4,026.8,000.0,037.7,031.0,29.5,0000.0,0007.90,0005.21,0004.87
